GFSSW_sfc_dewp_132.txt.gz
Dewpoint
57 58 57 58 59 58 58 58 58 58 58 59 59 59 59 59 59 53 24 35 43 67 66 41 47 47 49 53 59 60 54 50 43 34 35 39 42 49 51 53 54 54 57 58 59
58 58 59 59 59 58 58 58 58 58 58 59 59 59 59 59 50 35 50 66 69 70 40 37 40 42 45 44 48 49 44 43 34 35 34 27 36 48 51 53 54 53 56 57 63
57 58 58 57 58 59 58 58 59 58 59 58 59 59 59 57 44 29 65 70 69 67 31 31 31 36 32 36 38 36 41 33 32 26 24 23 24 53 51 52 52 53 55 59 61
56 56 56 56 57 57 58 58 59 59 60 59 58 59 58 54 37 44 71 69 69 41 31 31 39 33 30 32 35 28 30 30 25 23 25 26 24 38 54 53 53 55 55 56 61
56 55 56 56 56 57 57 58 58 59 59 59 59 58 54 40 29 57 68 67 45 31 28 35 42 36 30 27 28 28 28 28 26 23 21 22 22 27 49 53 54 54 55 55 57
55 55 55 55 56 57 57 57 58 59 59 58 58 58 50 42 50 56 46 47 32 34 36 37 41 30 27 25 26 28 28 28 25 25 25 21 24 28 53 53 53 53 54 54 54
55 55 55 55 55 56 56 57 57 59 59 58 58 55 50 40 43 46 34 32 32 34 41 42 35 29 25 23 26 24 26 27 25 24 20 20 19 23 53 52 52 52 53 54 54
55 55 55 55 55 55 56 56 57 59 59 58 58 54 43 48 41 38 33 31 32 32 38 37 32 30 28 26 23 22 27 24 24 21 20 21 19 23 53 51 51 52 52 53 54
55 55 55 55 55 55 54 55 57 60 59 59 54 50 42 48 37 35 36 36 34 35 34 31 30 28 28 26 25 28 26 23 23 19 18 22 24 31 24 50 51 51 52 52 53
54 54 54 54 54 54 53 56 59 59 58 55 51 44 44 33 35 37 36 37 35 33 32 35 28 25 26 25 23 19 16 17 20 18 23 23 22 30 36 37 50 52 52 53 53
54 53 53 53 53 53 52 51 40 41 46 32 41 43 42 40 34 35 37 32 31 32 30 33 27 24 25 26 26 19 17 19 20 19 18 23 26 35 36 41 52 53 54 54 54
53 53 53 53 52 52 51 43 32 31 31 38 39 40 40 32 28 30 30 27 32 27 30 30 28 29 30 23 21 20 19 17 23 23 16 21 25 33 43 47 54 56 55 57 60
53 52 52 52 51 52 49 47 44 40 34 31 31 34 31 26 21 28 27 26 28 27 25 28 29 28 24 20 19 21 21 22 23 21 19 19 24 33 42 52 55 58 59 60 61
52 52 51 51 44 47 47 43 41 34 29 28 29 28 22 19 19 23 27 26 28 25 25 22 23 19 22 22 24 25 24 23 22 20 17 21 16 30 40 46 54 57 59 60 61
51 51 51 50 42 43 45 47 44 33 27 32 24 24 22 19 20 24 26 26 24 24 21 19 22 19 22 25 23 23 26 24 26 20 19 21 20 28 39 45 49 54 58 59 61
51 50 50 46 45 44 44 42 37 27 23 22 17 18 19 19 18 23 23 27 26 22 21 21 23 19 17 24 24 26 24 24 27 22 20 22 23 30 37 43 46 49 55 58 58
50 49 49 43 19 33 37 40 31 28 29 16 15 16 17 16 16 19 18 19 18 17 19 22 22 21 20 20 24 24 24 22 22 25 22 27 28 30 36 44 46 49 52 55 56
48 49 48 46 43 38 42 36 32 31 28 20 16 16 15 15 15 17 18 18 20 20 19 19 20 21 23 21 21 23 21 21 23 22 23 28 31 36 42 44 47 49 51 53 55
49 42 40 43 44 41 40 33 32 34 30 27 17 15 14 14 15 18 18 17 18 19 18 23 23 24 23 23 22 23 23 24 21 26 20 26 34 36 39 39 41 45 51 53 55
44 43 39 32 43 43 37 36 34 31 27 26 26 16 14 14 14 16 18 19 18 21 24 25 21 25 26 24 25 21 23 18 22 20 20 26 33 34 38 37 44 46 47 48 49
42 36 38 31 43 37 32 33 30 27 25 26 28 29 27 28 21 17 18 20 21 25 24 24 22 22 27 26 24 23 23 27 25 24 23 25 31 40 38 39 41 42 44 46 51
41 24 33 33 32 34 30 30 32 23 22 21 28 27 28 29 28 27 24 30 27 25 25 33 26 27 24 28 28 26 22 27 26 23 26 27 26 34 39 38 39 43 46 51 51
36 37 37 33 28 28 28 26 25 23 20 22 23 28 28 26 25 31 30 30 32 32 29 28 29 25 23 25 21 24 29 30 31 30 25 26 27 34 40 45 48 49 49 50 50
39 36 37 33 32 27 24 23 20 24 23 24 30 28 26 24 28 30 30 30 30 32 53 39 29 26 21 24 24 26 26 25 30 28 27 28 28 32 35 42 45 47 48 49 51
40 35 43 40 37 39 38 23 20 18 23 27 26 28 27 35 28 26 30 32 31 48 31 28 24 27 26 25 28 29 28 26 24 27 22 21 25 24 32 44 45 48 48 47 49
30 41 39 41 42 35 38 31 25 21 24 23 24 25 28 32 33 32 33 31 30 33 28 30 26 32 28 31 32 31 30 29 27 27 24 23 24 42 46 47 47 47 47 48 51
40 40 40 41 39 35 31 32 31 26 27 30 25 31 35 37 37 34 35 31 34 32 34 34 36 33 32 33 30 29 30 29 29 28 24 21 28 44 43 43 45 48 49 49 49

GFSSW_sfc_dewp_135.txt.gz
Dewpoint
57 57 58 58 58 58 57 58 57 58 57 59 59 59 59 59 59 54 18 30 40 69 67 54 49 48 49 52 58 60 54 53 52 44 36 50 48 47 50 55 56 57 59 61 63
57 56 57 57 57 58 57 57 57 58 57 57 59 59 59 59 49 33 48 64 67 70 41 42 45 47 46 50 58 55 52 52 52 39 39 49 47 47 53 54 55 57 60 62 64
56 56 56 56 56 57 57 57 57 58 58 58 58 59 59 57 37 14 63 68 70 67 31 30 31 32 36 40 49 51 45 44 42 27 25 41 46 51 53 52 54 57 58 63 65
56 55 55 56 56 56 57 57 58 59 59 59 58 58 58 54 31 41 69 68 70 45 30 29 38 35 30 30 34 28 42 32 25 23 24 30 48 52 52 53 54 58 59 63 64
55 55 55 55 55 56 56 57 57 59 58 58 58 58 53 34 19 59 70 68 45 30 23 33 42 37 30 27 26 27 27 26 28 25 22 23 46 52 52 54 55 57 61 61 62
54 55 55 55 55 56 56 56 57 58 58 58 58 58 49 40 52 57 49 36 27 26 25 32 40 35 29 25 25 25 25 25 28 26 26 20 36 49 54 54 55 57 59 60 61
54 54 54 54 54 55 55 55 56 57 58 58 58 55 48 36 47 48 37 33 31 30 36 41 41 28 29 25 27 23 24 26 27 28 23 20 28 47 53 54 54 55 57 59 60
54 54 54 54 54 54 55 55 56 57 58 58 58 54 38 47 43 40 32 29 31 29 38 39 36 30 27 28 26 23 26 25 25 22 21 19 18 51 53 53 53 54 54 56 59
54 54 54 54 54 54 54 55 56 59 59 59 54 50 40 49 37 36 33 33 32 34 34 33 32 27 27 25 24 23 24 25 24 21 19 22 20 51 52 52 52 53 54 54 54
54 54 54 53 53 53 53 55 60 58 58 56 52 41 43 36 37 36 36 37 37 36 33 34 28 25 25 25 19 22 16 19 23 18 23 21 21 50 52 51 52 52 53 53 54
53 53 53 53 53 52 51 52 35 37 49 21 35 39 41 42 36 36 36 36 38 34 29 33 27 26 25 25 26 28 20 18 23 21 22 23 29 38 51 51 51 51 52 52 53
53 53 53 52 52 53 50 42 35 32 30 37 39 39 38 39 30 32 34 28 28 27 30 26 27 29 31 30 28 26 18 20 20 20 20 26 27 36 45 50 51 51 52 52 53
52 52 52 52 51 51 46 45 46 45 33 31 36 35 32 33 28 30 29 27 28 28 25 24 26 30 31 23 20 23 20 22 23 22 19 25 27 34 49 55 54 52 52 53 54
51 52 51 51 36 40 46 46 42 37 27 24 29 29 23 25 20 27 29 26 28 24 26 24 26 25 22 24 23 35 24 23 22 20 16 22 22 32 42 54 57 58 56 55 56
51 51 51 50 40 29 41 34 37 32 17 27 28 27 21 19 20 21 28 26 25 24 23 21 21 21 25 23 22 21 25 24 25 20 29 21 20 31 46 52 55 58 60 61 62
50 50 50 45 43 40 38 34 34 25 17 26 21 20 19 20 19 24 25 25 26 25 25 22 22 19 21 24 24 26 25 25 28 23 20 21 22 27 43 51 53 57 59 61 61
50 49 49 44 12 31 37 38 28 24 24 21 16 18 20 19 19 21 21 21 19 16 17 21 21 22 20 20 24 24 22 20 22 23 22 26 27 29 37 48 55 55 58 59 59
48 49 48 46 43 38 41 35 31 24 27 25 16 18 18 16 16 18 19 18 19 19 19 17 19 24 25 21 21 23 21 21 22 20 22 29 32 34 40 47 51 56 57 57 57
48 41 40 41 44 38 38 33 29 31 32 27 16 16 16 15 15 18 17 17 18 19 16 21 21 25 25 23 22 25 22 23 21 25 19 23 34 39 42 46 48 50 54 55 56
43 42 40 36 41 41 36 34 33 35 28 25 18 17 15 16 14 16 18 18 17 20 20 22 23 24 26 24 25 22 22 18 20 19 22 24 31 34 37 42 46 50 53 55 56
40 28 23 41 42 37 32 33 34 32 26 25 29 26 20 26 14 15 16 19 18 22 22 25 25 22 26 24 23 23 23 26 23 23 22 23 30 37 37 42 45 49 52 53 52
34 7 27 36 36 36 32 32 33 25 22 20 26 27 24 27 26 26 18 20 24 25 21 28 22 22 22 29 27 25 24 27 26 26 26 24 23 33 37 40 44 45 47 51 52
32 33 38 31 29 29 30 27 27 25 24 21 23 27 27 25 24 29 29 31 31 28 27 28 25 22 20 20 22 25 28 31 29 28 27 25 25 32 39 40 42 44 49 50 51
35 31 40 38 32 30 27 25 24 24 23 21 21 27 25 23 25 27 29 29 31 37 53 40 28 22 18 17 23 25 27 28 30 28 28 26 27 30 39 43 47 48 50 50 52
37 32 42 39 37 41 39 28 25 25 21 25 27 26 25 26 26 27 30 29 30 44 31 25 26 29 26 24 26 28 28 27 23 25 20 21 26 26 36 43 47 48 49 51 52
36 39 38 38 41 37 34 31 31 30 23 20 24 26 25 30 25 30 30 33 27 30 28 30 25 30 29 31 30 30 30 29 28 25 24 23 22 31 39 46 47 47 46 48 50
39 38 39 38 35 34 33 32 31 34 31 26 27 35 34 35 35 32 31 32 33 30 32 34 34 28 29 32 29 28 28 28 31 33 28 24 25 45 45 46 47 46 47 50 50

GFSSW_sfc_dewp_138.txt.gz
Dewpoint
57 57 57 57 57 57 57 57 57 57 57 57 58 59 59 59 59 54 21 30 38 68 61 57 46 46 49 51 59 59 53 51 51 50 44 50 49 49 51 56 57 58 60 62 64
56 56 56 56 57 57 57 57 57 57 57 57 57 59 59 59 50 33 47 63 69 69 39 43 46 47 45 50 57 54 52 48 53 51 43 50 49 47 53 55 57 59 62 63 63
56 56 56 56 56 56 57 57 57 57 58 57 58 59 59 57 32 10 62 67 70 63 31 34 43 35 36 43 51 53 48 46 44 45 45 48 47 52 53 53 56 59 61 62 65
55 55 55 55 56 56 56 57 57 57 59 58 58 59 58 54 10 40 66 69 71 46 26 29 35 36 32 30 36 40 43 47 32 25 38 46 48 51 53 53 57 61 62 63 65
55 54 55 55 55 55 56 56 56 57 59 58 58 58 52 27 26 57 71 70 52 30 21 36 41 38 30 28 27 28 27 29 28 26 25 48 49 52 52 55 59 61 62 64 65
54 54 54 54 54 55 55 55 56 57 58 58 58 58 51 31 50 57 54 37 27 24 22 34 39 35 32 26 24 26 24 24 27 28 28 44 47 52 53 57 58 60 62 63 64
54 54 54 54 54 54 54 55 55 57 58 58 58 56 47 38 49 46 34 28 28 24 26 35 41 31 29 26 27 24 23 26 28 26 21 33 40 43 54 56 57 59 61 62 63
53 53 54 54 54 54 54 54 56 56 58 58 58 53 30 44 45 34 32 27 31 29 36 39 39 33 29 28 26 26 25 24 25 23 20 22 22 53 54 55 57 59 59 60 61
53 53 54 54 54 54 54 54 56 58 58 58 52 49 38 48 36 36 30 25 30 30 33 33 31 27 27 25 22 22 20 26 24 24 20 20 19 52 54 54 55 57 58 59 60
53 53 53 53 53 53 53 55 59 58 58 56 53 40 42 37 38 35 34 35 35 34 34 32 29 26 25 24 15 21 18 24 24 20 20 21 25 52 52 53 54 54 55 57 58
53 53 53 53 53 52 52 52 33 35 50 14 25 36 39 41 37 36 36 36 36 30 29 32 27 26 25 25 26 27 24 20 20 23 21 23 32 51 52 52 52 53 54 55 55
52 52 52 52 52 53 49 43 38 36 37 36 37 37 38 37 30 32 36 32 32 27 30 26 27 29 30 28 28 29 25 19 20 20 22 32 32 42 51 51 52 52 53 54 54
52 52 52 52 51 48 40 44 41 43 33 31 37 36 32 33 29 31 33 30 27 27 26 24 24 30 29 25 20 27 20 21 20 22 23 32 33 36 52 52 52 52 53 54 53
51 52 51 50 33 38 39 45 32 39 25 23 30 29 28 30 28 30 31 27 27 25 26 25 25 25 23 25 22 33 24 24 20 19 18 27 29 31 45 53 55 51 52 52 54
51 51 51 50 39 28 32 31 36 30 13 19 29 26 25 25 21 23 30 26 24 25 22 20 22 21 23 22 22 22 24 25 25 20 19 22 25 33 48 51 56 57 53 53 55
50 50 50 45 41 38 34 33 34 24 17 26 24 23 22 22 19 25 26 26 26 24 24 22 23 20 22 24 24 25 24 24 28 23 20 25 20 26 43 49 55 59 59 60 61
50 49 48 45 16 31 36 36 27 21 21 23 18 20 22 20 20 22 23 23 21 17 17 20 21 22 22 18 25 22 22 20 20 22 22 27 27 28 36 51 56 59 60 61 62
49 49 47 46 44 38 37 35 28 21 24 26 17 19 21 18 19 20 21 21 21 19 19 17 18 23 24 18 19 23 21 20 21 19 21 29 31 34 42 45 57 60 60 60 61
48 39 38 39 45 36 37 32 29 29 32 27 17 17 17 17 17 18 19 18 20 18 16 17 20 25 25 24 23 25 22 23 22 21 20 22 33 42 45 51 56 56 58 59 60
42 40 37 40 41 39 36 34 33 33 29 24 18 18 17 15 14 16 17 18 18 20 19 20 25 24 25 25 25 22 23 19 20 20 22 22 31 34 43 47 53 53 56 58 59
34 21 16 42 41 33 31 32 32 35 32 23 27 21 16 16 14 16 16 18 18 20 23 23 25 22 25 23 22 22 24 25 23 22 18 22 28 37 41 44 49 52 55 57 57
30 6 24 39 34 35 31 32 34 27 24 20 24 26 24 27 16 15 15 18 22 22 19 27 22 23 23 28 28 27 25 27 26 24 25 23 24 34 37 43 48 50 54 55 56
32 28 35 33 31 32 34 29 29 24 24 21 21 26 27 26 24 28 25 30 30 22 23 26 23 22 20 21 24 26 31 29 28 28 28 25 26 32 41 41 45 47 50 53 54
31 21 38 37 35 32 29 27 26 26 24 23 21 25 25 23 25 27 29 29 33 39 53 38 25 23 20 21 24 27 28 30 28 28 27 26 27 31 38 42 45 47 51 52 53
34 29 39 35 37 39 37 28 23 24 24 23 23 24 25 26 25 26 29 29 31 45 30 26 25 26 28 25 27 27 27 25 25 25 23 24 29 27 32 43 47 49 51 52 53
36 37 38 37 39 39 35 31 30 31 27 26 23 27 26 24 24 27 28 31 26 29 29 29 26 27 31 31 30 30 29 28 28 28 29 27 25 29 34 47 48 49 51 52 52
38 37 38 37 34 33 32 32 31 34 33 29 27 31 31 31 32 32 35 31 29 28 33 32 30 26 29 32 30 26 29 29 33 34 30 29 29 41 45 47 48 48 49 51 51

GFSSW_sfc_dewp_144.txt.gz
Dewpoint
56 56 56 56 57 57 57 57 58 57 57 57 57 57 59 59 59 49 20 35 39 66 63 41 40 53 46 43 49 52 37 34 36 35 39 47 46 51 52 54 56 54 55 60 62
56 56 56 56 56 57 57 57 57 57 57 57 57 56 59 59 44 26 52 61 65 70 42 36 38 39 38 39 43 37 29 30 33 36 38 43 45 49 50 54 54 57 59 61 61
55 55 56 56 56 56 57 56 57 57 57 58 57 57 59 56 31 9 64 64 67 65 26 31 39 36 33 33 38 36 27 31 29 29 38 42 46 48 47 47 52 56 59 59 60
55 55 55 55 55 56 56 56 56 57 57 59 58 59 59 49 12 42 67 67 70 37 25 38 37 35 34 30 31 30 29 28 27 28 33 42 47 47 50 50 54 56 58 58 58
54 54 54 54 55 55 55 55 56 57 57 58 58 59 52 29 20 56 69 65 42 24 18 29 36 36 33 30 28 28 28 27 25 23 32 45 45 48 52 54 54 56 57 57 56
53 54 54 54 54 55 55 55 55 56 57 58 58 58 44 17 47 52 35 35 28 22 17 34 35 32 32 30 29 27 26 26 26 26 38 39 46 48 54 56 54 55 56 56 56
53 53 54 54 54 54 54 55 55 56 57 58 58 54 38 31 46 48 35 23 23 20 15 34 36 32 31 29 27 26 25 25 27 26 35 39 43 44 55 56 54 53 54 55 57
53 53 54 54 54 54 54 54 56 57 58 58 58 50 24 41 44 37 30 25 24 23 27 32 36 31 30 30 25 24 26 20 23 24 35 36 34 50 55 54 53 52 54 56 57
54 54 54 54 54 54 54 55 57 58 58 58 53 45 28 48 37 31 26 22 20 22 29 32 32 27 28 25 21 23 18 20 21 22 27 27 33 50 53 53 54 55 55 56 58
53 53 53 53 53 53 54 56 59 59 55 53 49 42 38 37 37 31 27 23 21 20 24 31 27 22 20 21 20 19 19 19 20 21 21 20 36 49 51 52 52 55 56 56 57
53 53 53 53 53 52 52 52 46 44 45 19 18 27 36 36 35 22 25 24 22 17 21 27 20 20 22 24 26 24 21 21 22 22 21 20 32 45 50 51 52 53 56 56 57
53 52 52 52 52 52 49 43 36 35 35 36 32 29 34 34 30 25 27 26 23 19 21 26 19 24 29 27 26 25 22 22 22 22 23 23 27 40 48 49 51 52 54 55 56
52 52 52 52 51 47 25 43 32 31 36 32 33 27 31 32 27 27 32 29 24 20 22 20 24 30 27 27 25 23 21 23 20 25 25 24 30 39 45 48 49 51 53 53 55
52 52 51 50 42 29 37 43 22 35 29 25 27 27 30 30 27 30 31 27 24 23 23 28 27 26 25 22 22 21 22 20 20 22 18 27 19 31 34 43 47 49 52 53 54
52 51 51 50 37 25 33 18 35 38 17 20 26 29 27 26 27 31 34 31 24 27 30 27 26 23 22 21 21 23 23 22 22 20 22 22 17 27 33 34 37 43 49 51 54
51 51 50 42 38 29 24 24 38 29 18 19 24 25 27 25 25 30 33 31 27 28 30 23 22 22 21 24 23 26 25 25 24 20 20 23 20 21 25 30 30 36 44 50 52
50 50 49 39 20 24 25 34 31 25 22 19 21 23 24 24 21 27 31 30 24 28 28 24 21 20 24 24 25 25 23 21 20 18 19 29 23 25 32 36 40 39 40 48 52
50 49 46 39 36 34 24 36 31 24 19 23 21 21 22 23 21 23 27 26 25 25 22 21 19 21 22 22 22 23 22 20 23 19 23 31 25 31 39 42 45 46 42 46 50
49 33 32 33 37 34 27 31 30 28 22 20 21 20 22 22 20 21 24 22 24 26 24 21 19 21 21 22 23 25 24 23 21 23 16 21 25 27 40 43 47 47 46 47 51
40 31 26 35 38 27 20 27 29 28 29 26 22 23 21 21 22 21 22 23 23 24 24 24 23 21 23 24 25 26 25 22 21 23 21 22 24 23 32 38 48 51 51 53 54
37 21 32 38 33 18 8 17 24 30 30 29 22 23 23 21 21 20 20 19 21 24 24 21 24 25 26 25 22 25 23 25 22 23 20 20 21 30 33 36 44 50 53 54 57
32 18 36 36 23 13 6 11 26 23 29 29 27 25 23 23 22 20 19 21 19 20 23 23 22 24 21 27 28 24 25 26 22 34 26 23 24 26 34 37 42 47 54 57 58
30 23 34 36 18 8 11 3 18 20 22 25 26 26 27 24 27 22 21 19 19 19 24 25 23 27 27 25 28 26 27 27 28 31 30 24 26 35 36 39 45 47 52 59 61
34 19 22 33 28 30 14 15 13 20 19 20 22 25 26 29 27 27 21 23 20 20 52 35 24 29 19 24 24 28 28 28 28 27 27 27 27 34 35 36 42 48 52 58 62
32 20 36 28 23 27 24 14 10 13 22 21 24 21 25 28 29 29 23 29 28 40 31 26 28 29 24 23 23 25 24 27 28 28 27 27 29 31 37 39 41 49 50 54 59
34 32 36 35 40 32 32 29 14 10 19 20 22 18 21 28 30 29 30 32 31 35 31 27 31 31 24 23 21 21 22 27 27 27 29 27 28 33 39 40 43 48 53 53 56
37 38 37 34 33 34 27 29 23 20 14 18 19 17 19 17 22 29 32 35 35 36 36 35 35 36 27 28 25 25 26 27 28 30 26 27 30 34 33 40 44 46 51 55 56

GFSSW_sfc_dewp_150.txt.gz
Dewpoint
56 56 57 57 58 57 57 58 58 58 59 59 59 59 59 59 60 45 28 42 44 69 62 46 44 42 43 45 39 40 35 30 32 35 38 37 41 42 46 50 53 57 60 64 64
56 56 56 56 57 57 57 57 57 58 58 58 58 59 58 59 45 32 57 68 67 70 33 37 34 36 38 35 35 34 26 23 27 33 36 36 42 43 47 51 54 59 61 63 63
55 55 55 55 56 56 57 57 57 57 58 58 59 59 58 58 41 26 67 69 68 62 34 36 23 31 36 30 30 25 24 21 23 32 35 40 43 44 45 48 53 55 59 60 61
55 55 55 55 55 55 56 56 57 57 58 58 59 59 59 50 26 37 63 67 69 42 38 26 25 37 35 27 27 26 22 20 22 31 37 37 38 38 43 48 53 55 56 61 60
54 54 54 55 55 55 55 56 56 57 57 58 59 59 53 34 25 47 68 61 24 30 32 20 30 37 33 26 26 25 23 22 20 31 36 37 38 41 46 49 53 55 55 57 59
54 55 55 55 55 55 55 55 56 57 57 58 59 58 43 31 37 39 27 21 23 25 21 18 26 36 32 28 28 25 24 22 22 31 35 35 39 43 47 50 51 54 54 53 60
54 55 55 55 54 55 55 55 57 57 58 59 59 51 40 27 34 33 22 20 23 19 16 16 25 35 34 27 25 23 22 22 22 30 32 43 43 43 47 49 50 51 52 54 55
54 54 54 55 55 55 55 54 57 59 58 59 59 46 35 28 37 38 27 19 19 17 16 18 31 33 34 31 24 21 21 20 22 27 32 41 39 44 46 48 50 50 50 52 54
54 54 54 54 54 54 54 54 58 58 58 59 51 46 28 45 30 36 31 18 15 14 17 24 28 30 30 27 24 21 20 19 19 23 30 35 39 44 45 47 50 50 50 51 53
53 53 53 53 53 53 53 54 58 58 53 48 45 40 27 31 25 30 30 23 16 13 16 22 23 24 24 23 20 18 19 18 19 18 22 33 37 42 44 44 49 49 50 52 52
53 53 53 53 53 53 50 50 48 46 46 26 24 31 23 30 30 29 25 21 17 14 14 18 17 17 17 20 22 24 19 18 19 18 20 32 34 38 43 43 45 49 51 51 52
53 53 52 52 52 51 49 41 37 31 31 41 28 21 29 31 29 27 22 18 17 12 13 13 12 15 17 18 18 22 20 19 19 18 19 29 33 34 37 42 45 47 51 51 52
53 52 52 52 50 48 41 37 35 30 29 28 33 21 24 30 26 23 21 16 15 13 10 11 13 13 17 21 19 19 20 21 19 18 17 22 29 35 35 38 43 46 50 51 52
52 52 52 50 42 32 27 30 36 31 29 22 25 26 15 29 26 24 18 15 16 14 11 9 15 13 19 21 20 21 20 19 20 19 15 19 19 37 35 36 41 43 48 49 51
52 52 51 50 38 29 27 26 28 34 23 13 22 26 18 25 24 24 18 13 20 12 11 13 14 17 20 21 21 22 22 19 18 18 20 20 17 30 36 36 36 41 45 47 52
52 51 51 37 41 38 28 21 29 30 20 17 21 20 17 20 24 23 18 16 22 20 17 16 15 24 22 21 20 20 21 22 18 16 17 21 19 29 29 37 36 37 43 46 49
51 50 48 41 28 26 23 23 25 25 19 13 20 19 15 16 22 23 22 19 21 23 21 19 18 21 21 21 21 19 20 19 19 17 17 23 19 32 29 33 34 38 40 44 48
50 49 45 37 33 31 25 26 26 21 21 12 16 19 14 17 20 21 24 19 22 22 18 19 19 21 21 20 21 19 19 20 25 20 17 27 23 25 35 35 35 34 37 41 45
49 37 33 35 37 33 22 20 23 23 18 17 12 16 17 13 17 21 24 22 21 23 25 21 20 21 17 19 21 23 21 19 20 22 22 24 28 33 34 32 32 34 33 37 44
41 35 32 28 28 29 21 21 20 19 20 17 17 16 16 15 16 17 22 24 21 22 23 23 23 20 17 18 18 21 23 19 21 29 24 19 28 26 35 32 37 39 39 41 48
41 34 30 28 26 25 16 15 16 16 18 21 22 18 16 16 15 16 19 22 22 21 22 19 22 23 20 20 18 19 20 23 19 20 24 26 30 40 40 35 37 39 40 46 47
34 29 26 25 25 23 15 14 21 11 16 17 23 22 21 16 18 17 18 20 19 21 21 21 19 24 19 20 19 19 21 25 24 31 28 24 25 28 30 28 28 33 43 47 49
32 27 28 28 24 22 18 11 10 10 12 15 20 24 25 25 25 19 18 18 17 19 23 24 22 20 23 20 22 19 20 21 24 28 35 25 26 31 32 34 34 32 36 48 52
33 24 25 28 27 24 21 16 11 10 9 12 18 26 26 26 26 28 19 17 17 17 50 35 22 29 17 26 24 25 18 20 24 27 28 29 32 35 34 37 38 39 40 43 56
32 25 25 22 23 24 24 21 12 10 11 12 16 19 25 25 25 26 25 22 18 40 27 22 35 28 19 19 21 22 20 20 23 25 26 28 35 41 44 44 42 43 47 48 52
34 25 28 31 31 26 25 24 21 17 13 12 14 15 21 26 26 26 26 28 25 24 23 20 33 31 24 19 20 22 21 21 19 20 25 25 36 42 46 40 41 43 43 46 51
35 34 31 33 30 28 31 24 20 21 18 13 12 14 21 21 22 25 25 26 28 29 31 30 30 35 28 23 22 23 23 22 22 24 23 25 39 43 38 39 42 43 43 46 52

GFSSW_sfc_dewp_153.txt.gz
Dewpoint
56 56 56 57 57 57 57 57 58 58 59 59 59 60 60 60 59 54 34 40 49 68 63 37 42 44 45 44 51 56 48 33 37 37 38 44 49 53 57 58 60 62 63 66 68
55 56 56 56 57 57 57 57 57 58 58 59 59 60 60 59 48 34 51 67 66 69 32 31 36 28 28 36 38 42 28 28 37 40 41 44 50 52 58 59 61 62 64 66 67
55 55 55 55 56 56 57 57 57 57 58 58 59 61 60 59 48 30 68 67 68 62 31 31 37 29 21 29 28 23 21 22 34 42 43 45 49 52 56 58 61 61 62 65 66
54 54 55 55 55 55 55 56 56 57 57 58 59 61 60 54 34 34 66 68 69 39 34 35 32 21 30 33 28 21 22 25 37 40 41 42 45 48 52 58 59 62 62 63 63
54 54 54 55 55 55 55 55 56 57 57 58 59 60 56 39 32 47 67 63 36 25 32 32 26 21 35 29 26 23 25 23 36 38 40 44 46 49 52 54 59 60 61 61 63
54 54 55 54 55 55 56 56 56 58 58 58 59 59 48 39 39 49 40 32 18 21 25 27 20 20 34 31 27 28 24 22 30 37 43 44 46 49 52 54 58 60 60 62 62
54 54 55 54 54 55 55 55 55 58 59 58 59 54 44 30 37 41 28 17 17 23 23 20 19 33 35 34 27 27 24 25 30 43 43 44 45 47 51 53 53 54 59 60 61
54 54 54 54 54 54 55 54 55 59 59 58 59 51 41 37 35 32 22 19 18 22 20 18 21 31 32 34 29 21 22 20 32 43 44 43 44 47 50 51 52 53 58 59 59
54 54 53 53 54 53 53 53 55 59 59 59 54 49 41 45 32 36 28 21 18 19 17 16 28 27 30 29 28 25 20 21 24 41 44 43 43 47 49 50 50 50 53 56 57
53 53 53 53 53 53 53 54 56 57 56 52 46 43 41 31 29 30 35 27 16 15 16 20 24 26 26 25 24 25 21 20 20 36 38 43 43 45 48 49 50 50 51 53 56
53 53 53 52 52 52 49 46 50 48 48 33 30 38 28 30 29 26 32 27 19 16 14 18 18 19 24 23 24 23 24 21 20 20 31 41 43 43 46 48 49 50 51 52 53
53 53 52 52 52 51 49 42 43 34 31 42 33 32 29 27 24 28 28 23 20 15 15 16 16 18 21 19 18 21 23 21 20 19 33 38 41 43 44 47 48 49 51 51 52
52 52 52 52 50 50 43 39 40 36 30 29 31 40 35 25 27 27 23 20 19 16 13 13 15 15 13 15 24 20 23 23 19 19 20 33 35 40 43 45 48 50 51 52 52
52 52 51 50 44 35 31 29 35 32 31 30 26 28 33 29 28 28 23 19 17 14 14 12 12 12 13 20 19 21 23 22 18 18 15 20 31 36 36 43 46 49 50 51 52
52 52 51 50 42 38 32 33 29 29 28 24 22 30 26 22 27 27 24 18 15 14 15 14 11 10 16 21 21 21 25 24 24 21 35 21 23 34 35 37 44 48 50 51 53
51 51 51 43 42 42 37 28 28 30 28 18 19 26 21 14 22 25 19 19 16 16 16 12 13 13 19 23 23 24 27 24 19 17 17 19 21 34 35 36 41 47 49 50 52
51 50 49 43 35 30 33 29 27 27 25 19 23 23 18 15 17 24 17 15 13 17 24 16 14 15 23 23 23 21 29 23 22 19 20 21 22 31 35 38 37 42 48 49 52
50 49 47 41 40 39 34 28 28 23 24 18 22 21 19 17 17 22 20 15 15 17 23 22 18 19 22 22 23 23 19 23 23 22 22 23 24 34 37 38 37 38 41 47 50
50 40 35 36 40 35 34 22 25 26 20 19 20 20 18 16 16 20 22 19 16 17 22 21 22 22 22 21 21 25 19 22 17 19 23 26 34 36 36 34 35 33 36 44 49
44 39 34 32 33 37 31 26 21 21 20 19 18 22 21 16 14 19 20 24 21 19 21 25 26 22 21 19 19 23 25 24 23 25 24 27 32 34 33 33 39 38 40 42 47
43 37 36 33 32 33 21 20 19 18 18 19 17 19 22 19 16 17 18 24 24 20 21 21 24 23 23 18 18 19 23 26 24 27 24 30 31 42 41 41 40 39 44 49 51
36 32 33 32 28 28 24 18 23 14 15 15 17 18 18 23 17 16 17 22 24 24 21 22 23 24 24 23 20 20 19 26 28 26 29 31 32 30 30 29 32 41 43 44 58
36 29 31 29 23 24 25 21 19 12 13 13 13 16 18 22 32 34 19 19 22 23 23 25 22 20 21 22 20 18 21 26 29 30 28 31 30 34 34 36 37 38 43 50 61
37 28 29 34 31 26 25 24 20 14 11 12 13 15 16 22 31 33 29 25 19 20 47 40 26 25 19 26 24 23 22 21 21 25 28 28 31 34 39 37 38 44 46 47 62
37 28 27 25 27 27 27 27 24 19 13 14 15 14 14 21 31 30 29 28 23 36 42 25 28 29 23 21 20 23 21 19 19 28 25 26 31 41 43 44 46 46 48 51 65
36 34 33 32 31 32 32 29 24 23 22 15 15 13 15 18 34 32 30 33 35 33 29 24 30 29 31 24 19 17 23 22 19 22 26 34 37 41 45 44 45 46 48 58 66
40 40 38 36 31 29 30 31 25 24 23 23 18 14 15 16 22 27 23 25 29 35 32 28 33 33 26 28 26 24 24 25 22 24 23 30 41 42 43 46 45 46 49 63 64

GFSSW_sfc_dewp_156.txt.gz
Dewpoint
56 56 56 56 56 57 57 57 57 58 58 59 59 60 61 60 59 55 30 39 48 68 64 37 43 44 57 59 60 58 49 45 39 46 50 58 58 60 60 60 62 61 63 66 68
55 55 55 56 56 57 57 57 57 58 58 58 59 60 61 60 51 37 51 66 66 68 26 30 32 38 42 45 56 52 47 37 40 49 53 57 58 58 59 61 62 64 67 68 68
54 55 55 55 55 56 57 57 57 57 58 58 59 60 60 59 45 30 68 65 68 59 31 32 32 37 27 26 46 48 33 38 43 49 52 54 56 57 59 60 62 62 65 66 66
54 54 54 55 55 55 55 55 56 57 58 58 59 61 60 55 19 35 71 71 68 40 35 33 34 27 21 23 30 26 30 42 44 50 52 53 57 58 57 59 63 65 66 66 65
53 53 54 54 54 54 55 55 55 56 58 58 59 60 55 36 29 44 68 65 34 22 28 33 31 27 26 26 29 23 31 41 45 48 49 52 53 57 58 61 63 65 65 65 65
54 54 54 54 55 55 55 55 55 56 59 58 59 59 44 33 37 44 36 32 21 19 23 28 28 23 25 34 30 30 26 41 45 47 50 51 53 56 59 62 62 63 64 64 64
53 54 54 54 54 54 55 55 55 55 60 59 59 55 47 27 38 45 33 20 17 20 21 24 24 27 33 31 34 29 25 42 45 46 48 50 51 53 59 61 61 61 62 62 63
54 54 54 54 54 54 54 54 54 55 60 58 59 54 35 41 37 38 31 19 16 19 23 23 21 28 33 32 30 26 23 30 42 45 47 47 48 52 57 59 59 59 61 62 63
53 53 53 53 53 53 53 53 54 56 60 59 52 50 35 45 34 33 23 20 19 19 21 19 28 28 28 28 26 26 19 27 39 43 43 46 47 51 53 55 58 58 60 60 61
53 53 53 53 52 52 52 53 55 56 57 54 49 40 36 32 31 35 30 24 19 19 16 23 22 23 24 25 23 24 24 25 36 40 43 45 46 49 51 52 52 58 59 59 59
52 52 52 52 52 52 50 44 48 46 46 26 29 39 35 33 32 30 34 32 21 17 12 18 17 17 20 25 25 25 25 23 26 40 43 43 46 48 50 50 50 54 58 58 58
52 52 52 52 51 51 48 37 42 36 33 42 33 37 35 33 28 27 30 30 19 14 17 14 14 16 20 21 23 22 19 22 22 41 42 43 45 47 49 49 49 51 53 55 56
52 52 52 52 50 48 41 40 37 34 32 30 40 39 37 37 32 24 29 24 20 15 12 12 12 18 17 16 15 14 20 20 17 30 40 42 42 45 47 49 49 50 51 53 55
52 52 51 50 40 41 34 33 33 32 27 29 29 29 37 34 26 29 28 23 19 15 16 12 12 13 14 13 13 17 26 23 19 17 30 37 35 41 44 47 48 49 50 51 53
51 51 51 51 43 41 34 37 31 31 22 30 27 29 32 28 29 28 25 20 16 16 14 13 14 11 12 10 17 18 26 21 21 19 19 24 31 36 43 45 47 48 50 51 52
51 51 51 45 42 41 39 34 27 28 27 29 25 29 25 22 27 28 22 21 19 18 18 14 16 12 11 11 18 25 24 25 20 17 14 16 18 23 38 42 45 48 50 50 52
51 50 49 45 35 33 36 29 21 26 29 22 23 28 21 17 16 22 21 18 16 12 13 18 17 12 15 20 23 21 21 20 20 15 16 18 20 22 35 39 45 47 50 50 51
50 50 47 44 45 42 34 23 23 25 25 25 25 27 21 14 13 22 18 19 17 18 21 19 19 18 19 22 20 21 20 21 16 18 17 24 20 22 36 36 44 47 49 50 51
50 41 39 37 43 35 31 20 19 26 24 19 20 23 19 18 15 16 17 16 16 15 13 22 20 23 21 21 22 21 20 21 18 26 19 23 31 34 37 37 36 41 47 50 51
45 40 38 33 41 34 30 25 19 23 21 18 17 22 18 17 15 16 21 17 16 15 21 23 19 20 20 23 25 20 21 21 20 20 16 26 31 31 34 34 35 39 43 49 51
41 38 38 32 38 34 24 22 19 19 19 19 18 15 19 22 17 16 16 21 18 17 20 18 25 21 26 21 18 17 21 21 21 24 20 27 29 36 35 39 40 45 50 54 51
38 31 33 31 29 33 27 19 25 13 15 15 18 16 16 19 17 20 17 21 22 19 17 19 21 18 19 23 20 17 16 19 22 19 28 28 29 35 40 39 42 48 57 60 59
36 35 33 28 24 26 28 25 23 21 18 14 13 17 16 16 19 26 21 19 24 22 20 22 20 17 18 20 21 17 17 23 26 26 22 24 28 33 35 38 43 52 59 59 60
37 32 29 29 28 25 23 23 22 23 20 19 14 13 12 14 17 22 26 28 23 24 48 36 21 19 17 20 22 19 18 22 22 22 22 28 29 32 34 35 45 52 60 59 59
37 34 30 29 30 31 29 24 22 21 23 17 13 12 12 11 13 17 27 27 30 38 42 24 22 23 20 21 24 22 20 20 20 20 19 20 28 31 36 44 49 58 60 59 60
35 34 37 36 35 29 33 29 28 25 24 23 17 13 12 12 14 13 24 27 27 31 31 26 23 27 23 24 20 18 19 22 20 26 27 29 28 37 42 45 52 62 64 62 62
40 40 38 37 33 30 28 28 29 29 28 25 23 22 19 13 14 16 22 25 25 25 27 25 25 23 20 22 25 25 23 22 23 22 26 34 36 43 42 43 59 64 64 64 62